Location: Hohenfelde
(53.8441°N, 9.6220°E)
Time: 23:32:11
(UTC+00:00)

CZ-2D R/B - Visible Passes

Search period start: 19 October 2020 00:00
Search period end: 29 October 2020 00:00
Orbit: 791 x 846 km, 98.7° (Epoch: 18 October)

Date Brightness Start Highest point End Pass type
(mag) Time Alt. Az. Time Alt. Az. Time Alt. Az.
19 Oct 4.2 01:19:20 10° NNE 01:21:00 21° NNE 01:21:00 21° NNE visible
19 Oct 3.9 03:00:16 10° N 03:02:18 18° NNW 03:02:18 18° NNW visible
20 Oct 4.5 00:58:04 10° NNE 00:59:22 18° NNE 00:59:22 18° NNE visible
20 Oct 3.9 02:38:41 10° N 02:40:40 20° NNW 02:40:40 20° NNW visible
21 Oct 4.8 00:36:55 10° NNE 00:37:43 14° NNE 00:37:43 14° NNE visible
21 Oct 4.0 02:17:10 10° N 02:19:02 21° N 02:19:02 21° N visible
22 Oct 5.0 00:15:52 10° NNE 00:16:06 11° NNE 00:16:06 11° NNE visible
22 Oct 4.1 01:55:44 10° N 01:57:25 20° N 01:57:25 20° N visible
22 Oct 4.2 03:37:33 10° NNW 03:38:44 12° NNW 03:38:44 12° NNW visible
23 Oct 4.3 01:34:23 10° NNE 01:35:47 19° N 01:35:47 19° N visible
23 Oct 4.1 03:15:36 10° N 03:17:06 15° NNW 03:17:06 15° NNW visible
24 Oct 4.6 01:13:04 10° NNE 01:14:09 17° NNE 01:14:09 17° NNE visible
24 Oct 4.1 02:53:54 10° N 02:55:28 16° NNW 02:55:28 16° NNW visible
25 Oct 4.8 00:51:50 10° NNE 00:52:31 14° NNE 00:52:31 14° NNE visible
25 Oct 4.1 02:32:20 10° N 02:33:50 18° N 02:33:50 18° N visible
26 Oct 5.0 00:30:42 10° NNE 00:30:54 11° NNE 00:30:54 11° NNE visible
26 Oct 4.2 02:10:51 10° N 02:12:13 18° N 02:12:13 18° N visible
27 Oct 4.4 01:49:26 10° N 01:50:36 17° N 01:50:36 17° N visible
27 Oct 4.3 03:31:02 10° NNW 03:31:54 12° NNW 03:31:54 12° NNW visible
28 Oct 4.6 01:28:05 10° NNE 01:28:58 15° NNE 01:28:58 15° NNE visible
28 Oct 4.2 03:09:12 10° N 03:10:17 14° NNW 03:10:17 14° NNW visible
